Schneifelwetter: Wetterstation Hallschlag, 537 m . NN
Wetterdaten: Sonntag, 08.06.2008
Datum Zeit Temp. A. Temp. 2 Feuchte A. Luftdruck Regen Wind Richtung Richtung Sonnenschein Helligkeit T Regen Taupunkt Windchill
08.06.2008 00:01 11,8 C 11,3 C 93 % 1017 hPa 0,0 l/m 7,8 km/h (2 Bft) N-NW22.5 345 0 min 0 lux 0,00 min 10,7 C 10,9 C
08.06.2008 00:16 11,8 C 11,4 C 92 % 1017 hPa 0,0 l/m 14,0 km/h (3 Bft) N-NW45 340 0 min 0 lux 0,00 min 10,5 C 7,7 C
08.06.2008 00:31 11,8 C 11,4 C 92 % 1017 hPa 0,0 l/m 8,7 km/h (2 Bft) NW45 310 0 min 0 lux 0,00 min 10,5 C 10,3 C
08.06.2008 00:46 11,6 C 11,3 C 92 % 1017 hPa 0,0 l/m 8,3 km/h (2 Bft) NW45 305 0 min 0 lux 0,00 min 10,3 C 10,3 C
08.06.2008 01:01 11,6 C 11,3 C 92 % 1017 hPa 0,0 l/m 2,8 km/h (1 Bft) N22.5 350 0 min 0 lux 0,00 min 10,3 C 11,6 C
08.06.2008 01:16 11,6 C 11,4 C 93 % 1017 hPa 0,0 l/m 4,5 km/h (1 Bft) N 5 0 min 0 lux 0,00 min 10,5 C 11,6 C
08.06.2008 01:31 11,6 C 11,4 C 93 % 1017 hPa 0,0 l/m 7,9 km/h (2 Bft) N 10 0 min 0 lux 0,00 min 10,5 C 10,6 C
08.06.2008 01:46 11,6 C 11,5 C 93 % 1017 hPa 0,0 l/m 4,5 km/h (1 Bft) N-NW 330 0 min 0 lux 0,00 min 10,5 C 11,6 C
08.06.2008 02:01 11,6 C 11,5 C 94 % 1018 hPa 0,0 l/m 10,4 km/h (2 Bft) N-NO 15 0 min 0 lux 0,00 min 10,7 C 9,1 C
08.06.2008 02:16 11,6 C 11,5 C 94 % 1018 hPa 0,0 l/m 7,6 km/h (2 Bft) N 10 0 min 0 lux 0,00 min 10,7 C 10,8 C
08.06.2008 02:31 11,6 C 11,6 C 94 % 1017 hPa 0,0 l/m 9,2 km/h (2 Bft) NW22.5 325 0 min 0 lux 0,00 min 10,7 C 9,8 C
08.06.2008 02:46 11,6 C 11,6 C 94 % 1018 hPa 0,0 l/m 8,9 km/h (2 Bft) N67.5 5 0 min 0 lux 0,00 min 10,7 C 10,0 C
08.06.2008 03:01 11,4 C 11,6 C 94 % 1018 hPa 0,0 l/m 9,3 km/h (2 Bft) N45 360 0 min 0 lux 0,00 min 10,5 C 9,5 C
08.06.2008 03:16 11,4 C 11,5 C 95 % 1017 hPa 0,0 l/m 5,2 km/h (1 Bft) NW45 315 0 min 0 lux 0,00 min 10,6 C 11,4 C
08.06.2008 03:31 11,5 C 11,5 C 95 % 1017 hPa 0,0 l/m 6,1 km/h (2 Bft) W22.5 275 0 min 0 lux 0,00 min 10,7 C 11,5 C
08.06.2008 03:46 11,5 C 11,5 C 95 % 1018 hPa 0,0 l/m 2,9 km/h (1 Bft) NW22.5 320 0 min 0 lux 0,00 min 10,7 C 11,5 C
08.06.2008 04:01 11,5 C 11,5 C 95 % 1018 hPa 0,0 l/m 3,4 km/h (1 Bft) NW 310 0 min 0 lux 0,00 min 10,7 C 11,5 C
08.06.2008 04:16 11,6 C 11,5 C 95 % 1017 hPa 0,0 l/m 0,0 km/h (0 Bft) NW 320 0 min 0 lux 0,00 min 10,8 C 11,6 C
08.06.2008 04:31 11,6 C 11,6 C 95 % 1017 hPa 0,0 l/m 0,0 km/h (0 Bft) NW 320 0 min 0 lux 0,00 min 10,8 C 11,6 C
08.06.2008 04:46 11,7 C 11,7 C 95 % 1017 hPa 0,0 l/m 0,0 km/h (0 Bft) NW 320 0 min 0 lux 0,00 min 10,9 C 11,7 C
08.06.2008 05:01 11,8 C 11,8 C 94 % 1017 hPa 0,0 l/m 0,4 km/h (0 Bft) N-NW 340 0 min 0 lux 0,00 min 10,9 C 11,8 C
08.06.2008 05:16 11,8 C 11,8 C 95 % 1018 hPa 0,0 l/m 10,6 km/h (2 Bft) N-NO22.5 30 0 min 58 lux 0,00 min 11,0 C 9,3 C
08.06.2008 05:31 11,8 C 11,9 C 95 % 1018 hPa 0,0 l/m 13,5 km/h (3 Bft) N-NO22.5 30 0 min 280 lux 0,00 min 11,0 C 7,9 C
08.06.2008 05:46 11,8 C 11,9 C 95 % 1018 hPa 0,0 l/m 15,6 km/h (3 Bft) N-NO22.5 30 0 min 539 lux 0,00 min 11,0 C 7,1 C
08.06.2008 06:01 11,8 C 12,0 C 95 % 1018 hPa 0,0 l/m 12,6 km/h (3 Bft) N-NO22.5 30 0 min 1,08 klux 0,00 min 11,0 C 8,3 C
08.06.2008 06:16 11,7 C 12,0 C 95 % 1018 hPa 0,0 l/m 16,6 km/h (3 Bft) N-NO45 25 0 min 1,55 klux 0,00 min 10,9 C 6,6 C
08.06.2008 06:31 11,7 C 12,0 C 95 % 1018 hPa 0,0 l/m 17,8 km/h (3 Bft) NO22.5 35 0 min 3,05 klux 0,00 min 10,9 C 6,2 C
08.06.2008 06:46 11,7 C 12,1 C 95 % 1018 hPa 0,0 l/m 17,8 km/h (3 Bft) N-NO22.5 25 0 min 2,62 klux 0,00 min 10,9 C 6,2 C
08.06.2008 07:01 11,8 C 12,1 C 95 % 1018 hPa 0,0 l/m 17,1 km/h (3 Bft) N-NO45 30 0 min 4,43 klux 0,00 min 11,0 C 6,5 C
08.06.2008 07:16 12,0 C 12,5 C 95 % 1018 hPa 0,0 l/m 15,6 km/h (3 Bft) N67.5 10 0 min 13,0 klux 0,00 min 11,2 C 7,3 C
08.06.2008 07:31 12,3 C 13,1 C 95 % 1018 hPa 0,0 l/m 13,1 km/h (3 Bft) N-NO22.5 20 0 min 11,1 klux 0,00 min 11,5 C 8,7 C
08.06.2008 07:46 12,4 C 13,3 C 94 % 1018 hPa 0,0 l/m 18,0 km/h (3 Bft) N-NO22.5 25 0 min 9,7 klux 0,00 min 11,5 C 7,0 C
08.06.2008 08:01 12,3 C 13,6 C 93 % 1019 hPa 0,0 l/m 20,0 km/h (4 Bft) N-NO22.5 25 0 min 12,8 klux 0,00 min 11,2 C 6,3 C
08.06.2008 08:16 12,4 C 13,8 C 93 % 1019 hPa 0,0 l/m 17,3 km/h (3 Bft) N-NO22.5 30 0 min 14,9 klux 0,00 min 11,3 C 7,2 C
08.06.2008 08:31 12,4 C 14,0 C 93 % 1019 hPa 0,0 l/m 20,8 km/h (4 Bft) N-NO67.5 25 0 min 15,0 klux 0,00 min 11,3 C 6,2 C
08.06.2008 08:46 12,8 C 14,4 C 93 % 1019 hPa 0,0 l/m 19,0 km/h (3 Bft) NO45 35 0 min 19,3 klux 0,00 min 11,7 C 7,2 C
08.06.2008 09:01 13,1 C 15,0 C 91 % 1019 hPa 0,0 l/m 15,6 km/h (3 Bft) N-NO22.5 20 0 min 23,4 klux 0,00 min 11,7 C 8,7 C
08.06.2008 09:16 13,4 C 15,6 C 91 % 1019 hPa 0,0 l/m 17,8 km/h (3 Bft) N-NO22.5 25 0 min 28,1 klux 0,00 min 12,0 C 8,3 C
08.06.2008 09:31 13,7 C 16,1 C 90 % 1019 hPa 0,0 l/m 18,0 km/h (3 Bft) N-NO22.5 25 0 min 44,2 klux 0,00 min 12,1 C 8,6 C
08.06.2008 09:47 15,2 C 17,7 C 86 % 1019 hPa 0,0 l/m 14,7 km/h (3 Bft) NO67.5 35 16 min 65,0 klux 0,00 min 12,9 C 11,5 C
08.06.2008 10:02 15,6 C 17,8 C 83 % 1019 hPa 0,0 l/m 14,3 km/h (3 Bft) NO22.5 35 15 min 74,1 klux 0,00 min 12,7 C 12,1 C
08.06.2008 10:17 16,4 C 18,6 C 81 % 1019 hPa 0,0 l/m 14,6 km/h (3 Bft) N22.5 10 15 min 74,9 klux 0,00 min 13,1 C 13,0 C
08.06.2008 10:32 17,1 C 19,1 C 78 % 1019 hPa 0,0 l/m 16,9 km/h (3 Bft) N-NO22.5 25 15 min 73,5 klux 0,00 min 13,2 C 13,2 C
08.06.2008 10:47 18,0 C 19,9 C 75 % 1019 hPa 0,0 l/m 15,0 km/h (3 Bft) N-NO45 15 15 min 74,5 klux 0,00 min 13,5 C 14,8 C
08.06.2008 11:01 18,6 C 19,9 C 73 % 1019 hPa 0,0 l/m 15,5 km/h (3 Bft) N-NO22.5 25 14 min 78,4 klux 0,00 min 13,7 C 15,4 C
08.06.2008 11:16 18,9 C 19,9 C 73 % 1019 hPa 0,0 l/m 17,3 km/h (3 Bft) N-NO22.5 20 15 min 80,9 klux 0,00 min 13,9 C 15,4 C
08.06.2008 11:31 19,3 C 19,9 C 74 % 1019 hPa 0,0 l/m 17,6 km/h (3 Bft) N45 5 15 min 83,0 klux 0,00 min 14,5 C 15,8 C
08.06.2008 11:46 19,9 C 19,9 C 70 % 1019 hPa 0,0 l/m 19,5 km/h (3 Bft) N-NO22.5 20 15 min 84,0 klux 0,00 min 14,3 C 16,2 C
08.06.2008 12:01 19,7 C 24,1 C 69 % 1019 hPa 0,0 l/m 18,7 km/h (3 Bft) N-NO22.5 25 15 min 85,9 klux 0,00 min 13,8 C 16,1 C
08.06.2008 12:17 19,2 C 24,3 C 68 % 1019 hPa 0,0 l/m 18,8 km/h (3 Bft) N-NO67.5 30 16 min 88,2 klux 0,00 min 13,1 C 15,4 C
08.06.2008 12:31 19,3 C 24,4 C 70 % 1019 hPa 0,0 l/m 19,3 km/h (3 Bft) NO22.5 35 14 min 89,3 klux 0,00 min 13,7 C 15,4 C
08.06.2008 12:46 19,1 C 24,4 C 69 % 1020 hPa 0,0 l/m 24,5 km/h (4 Bft) N-NO67.5 20 15 min 90,9 klux 0,00 min 13,3 C 14,2 C
08.06.2008 13:01 19,4 C 24,6 C 69 % 1020 hPa 0,0 l/m 19,5 km/h (3 Bft) NO45 35 15 min 91,3 klux 0,00 min 13,6 C 15,5 C
08.06.2008 13:16 19,5 C 24,9 C 69 % 1019 hPa 0,0 l/m 23,5 km/h (4 Bft) NO45 40 15 min 92,5 klux 0,00 min 13,7 C 14,9 C
08.06.2008 13:31 19,5 C 25,6 C 68 % 1019 hPa 0,0 l/m 21,6 km/h (4 Bft) N-NO22.5 20 15 min 92,5 klux 0,00 min 13,4 C 15,3 C
08.06.2008 13:47 19,5 C 26,5 C 68 % 1019 hPa 0,0 l/m 22,8 km/h (4 Bft) NO67.5 35 16 min 92,0 klux 0,00 min 13,4 C 15,1 C
08.06.2008 14:01 19,5 C 27,1 C 68 % 1019 hPa 0,0 l/m 22,8 km/h (4 Bft) N-NO45 15 14 min 92,1 klux 0,00 min 13,4 C 15,1 C
08.06.2008 14:16 19,7 C 28,0 C 67 % 1019 hPa 0,0 l/m 20,3 km/h (4 Bft) N-NO22.5 15 15 min 92,0 klux 0,00 min 13,4 C 15,8 C
08.06.2008 14:31 19,9 C 28,7 C 68 % 1019 hPa 0,0 l/m 18,8 km/h (3 Bft) NO45 40 15 min 91,6 klux 0,00 min 13,8 C 16,3 C
08.06.2008 14:46 20,2 C 29,2 C 65 % 1019 hPa 0,0 l/m 23,3 km/h (4 Bft) N-NO22.5 25 15 min 90,0 klux 0,00 min 13,4 C 15,9 C
08.06.2008 15:01 20,5 C 29,6 C 65 % 1019 hPa 0,0 l/m 21,8 km/h (4 Bft) N-NO67.5 25 15 min 90,2 klux 0,00 min 13,7 C 16,5 C
08.06.2008 15:16 20,6 C 30,1 C 63 % 1019 hPa 0,0 l/m 22,6 km/h (4 Bft) NO45 35 15 min 89,3 klux 0,00 min 13,3 C 16,6 C
08.06.2008 15:31 20,8 C 30,4 C 63 % 1019 hPa 0,0 l/m 19,6 km/h (3 Bft) N-NO22.5 25 15 min 88,3 klux 0,00 min 13,5 C 17,3 C
08.06.2008 15:47 21,0 C 30,9 C 62 % 1019 hPa 0,0 l/m 23,8 km/h (4 Bft) NO45 40 16 min 85,9 klux 0,00 min 13,4 C 16,9 C
08.06.2008 16:01 21,2 C 31,7 C 64 % 1019 hPa 0,0 l/m 19,4 km/h (3 Bft) NO45 45 14 min 84,1 klux 0,00 min 14,1 C 17,9 C
08.06.2008 16:16 21,3 C 32,0 C 63 % 1019 hPa 0,0 l/m 21,0 km/h (4 Bft) NO22.5 45 15 min 84,9 klux 0,00 min 14,0 C 17,7 C
08.06.2008 16:31 21,7 C 32,3 C 63 % 1019 hPa 0,0 l/m 21,1 km/h (4 Bft) NO45 50 15 min 85,7 klux 0,00 min 14,3 C 18,2 C
08.06.2008 16:46 21,8 C 31,3 C 61 % 1019 hPa 0,0 l/m 27,3 km/h (4 Bft) N-NO67.5 15 15 min 92,0 klux 0,00 min 13,9 C 17,5 C
08.06.2008 17:01 21,1 C 27,7 C 64 % 1019 hPa 0,0 l/m 23,3 km/h (4 Bft) N-NO67.5 30 0 min 38,1 klux 0,00 min 14,0 C 17,1 C
08.06.2008 17:16 20,4 C 26,8 C 66 % 1019 hPa 0,0 l/m 22,4 km/h (4 Bft) N-NO22.5 25 0 min 44,2 klux 0,00 min 13,8 C 16,3 C
08.06.2008 17:32 20,4 C 28,3 C 64 % 1019 hPa 0,0 l/m 22,5 km/h (4 Bft) N-NO67.5 25 16 min 65,6 klux 0,00 min 13,4 C 16,3 C
08.06.2008 17:46 20,4 C 29,2 C 64 % 1019 hPa 0,0 l/m 26,8 km/h (4 Bft) NO67.5 45 0 min 58,8 klux 0,00 min 13,4 C 15,7 C
08.06.2008 18:01 20,4 C 29,7 C 63 % 1019 hPa 0,0 l/m 29,6 km/h (5 Bft) N-NO45 25 0 min 56,7 klux 0,00 min 13,1 C 15,3 C
08.06.2008 18:16 20,4 C 30,1 C 63 % 1019 hPa 0,0 l/m 24,0 km/h (4 Bft) N-NO22.5 25 0 min 53,1 klux 0,00 min 13,1 C 16,1 C
08.06.2008 18:31 20,5 C 30,4 C 65 % 1019 hPa 0,0 l/m 18,4 km/h (3 Bft) N-NO45 25 0 min 50,2 klux 0,00 min 13,7 C 17,1 C
08.06.2008 18:46 20,5 C 30,0 C 64 % 1019 hPa 0,0 l/m 23,6 km/h (4 Bft) NO45 35 0 min 45,3 klux 0,00 min 13,5 C 16,3 C
08.06.2008 19:01 20,4 C 29,3 C 64 % 1019 hPa 0,0 l/m 26,6 km/h (4 Bft) N-NO45 15 0 min 43,3 klux 0,00 min 13,4 C 15,7 C
08.06.2008 19:16 20,3 C 28,6 C 64 % 1019 hPa 0,0 l/m 23,8 km/h (4 Bft) N22.5 5 0 min 40,4 klux 0,00 min 13,3 C 16,0 C
08.06.2008 19:32 20,0 C 27,5 C 65 % 1019 hPa 0,0 l/m 23,4 km/h (4 Bft) N-NO22.5 15 0 min 36,6 klux 0,00 min 13,2 C 15,6 C
08.06.2008 19:46 20,0 C 26,9 C 66 % 1019 hPa 0,0 l/m 23,2 km/h (4 Bft) N-NO45 15 0 min 33,4 klux 0,00 min 13,4 C 15,7 C
08.06.2008 20:01 19,5 C 25,7 C 68 % 1019 hPa 0,0 l/m 25,1 km/h (4 Bft) N22.5 5 0 min 28,1 klux 0,00 min 13,4 C 14,7 C
08.06.2008 20:16 18,8 C 21,9 C 70 % 1019 hPa 0,0 l/m 19,7 km/h (3 Bft) N22.5 10 0 min 12,3 klux 0,00 min 13,2 C 14,7 C
08.06.2008 20:31 18,2 C 19,8 C 72 % 1019 hPa 0,0 l/m 19,8 km/h (3 Bft) N-NO22.5 15 0 min 5,04 klux 0,00 min 13,1 C 13,9 C
08.06.2008 20:46 17,9 C 18,2 C 74 % 1019 hPa 0,0 l/m 10,7 km/h (2 Bft) N-NO22.5 25 0 min 11,1 klux 0,00 min 13,2 C 16,1 C
08.06.2008 21:01 18,1 C 17,9 C 76 % 1019 hPa 0,0 l/m 10,1 km/h (2 Bft) N-NW22.5 330 0 min 11,8 klux 0,00 min 13,8 C 16,5 C
08.06.2008 21:17 18,3 C 18,1 C 76 % 1019 hPa 0,0 l/m 13,6 km/h (3 Bft) N-NO22.5 15 0 min 12,4 klux 0,00 min 14,0 C 15,6 C
08.06.2008 21:31 18,4 C 18,2 C 77 % 1020 hPa 0,0 l/m 15,6 km/h (3 Bft) N45 5 0 min 9,9 klux 0,00 min 14,3 C 15,2 C
08.06.2008 21:46 17,9 C 17,8 C 78 % 1020 hPa 0,0 l/m 17,8 km/h (3 Bft) N-NO22.5 25 0 min 3,66 klux 0,00 min 14,0 C 14,0 C
08.06.2008 22:01 17,5 C 17,2 C 79 % 1020 hPa 0,0 l/m 13,5 km/h (3 Bft) N-NO67.5 15 0 min 287 lux 0,00 min 13,8 C 14,7 C
08.06.2008 22:16 17,0 C 16,2 C 79 % 1020 hPa 0,0 l/m 11,0 km/h (2 Bft) N22.5 360 0 min 67 lux 0,00 min 13,3 C 14,9 C
08.06.2008 22:31 16,5 C 15,4 C 81 % 1020 hPa 0,0 l/m 11,4 km/h (2 Bft) N22.5 5 0 min 15 lux 0,00 min 13,2 C 14,2 C
08.06.2008 22:46 16,0 C 14,5 C 81 % 1020 hPa 0,0 l/m 10,7 km/h (2 Bft) N45 5 0 min 1 lux 0,00 min 12,7 C 13,9 C
08.06.2008 23:02 15,4 C 13,7 C 81 % 1020 hPa 0,0 l/m 5,1 km/h (1 Bft) N 5 0 min 0 lux 0,00 min 12,2 C 15,4 C
08.06.2008 23:16 14,9 C 12,8 C 82 % 1020 hPa 0,0 l/m 0,4 km/h (0 Bft) N 5 0 min 0 lux 0,00 min 11,9 C 14,9 C
08.06.2008 23:31 14,6 C 12,5 C 84 % 1021 hPa 0,0 l/m 3,7 km/h (1 Bft) N 355 0 min 0 lux 0,00 min 11,9 C 14,6 C
08.06.2008 23:46 13,9 C 11,9 C 83 % 1021 hPa 0,0 l/m 0,0 km/h (0 Bft) N-NW 340 0 min 0 lux 0,00 min 11,1 C 13,9 C
_ Min-Zeit 03:01 00:01 16:46 00:01 - 04:16 - - - - - 00:46 08:31
Minimum _ 11,4 C 11,3 C 61 % 1017 hPa - 0,0 km/h (0 Bft) - - - - - 10,3 C 6,2 C
_ Max-Zeit 16:46 16:31 03:16 23:31 00:01 18:01 - - 09:47 13:16 00:01 11:31 16:31
Maximum _ 21,8 C 32,3 C 95 % 1021 hPa 0,0 l/m 29,6 km/h
N-NO (5 Bft)
- - 16 min 92,5 klux 0,00 min 14,5 C 18,2 C
Durchschnitt _ 16,1 C 19,0 C 80 % 1019 hPa #0,0 l/m 15,3 km/h (3 Bft) N-NO - #7:31 h 34,8 klux #0 min. 12,4 C 12,9 C